Location: Natural Bridges National Monument
(37.6093°N, 109.9767°W)
Time: 00:54:28
(UTC-06:00)

Daily predictions for brighter satellites

Satellite Brightness Start Highest point End
(mag) Time Altitude Azimuth Time Altitude Azimuth Time Altitude Azimuth
Cosmos 2369 Rocket 4.0 00:16:26 10° NW 00:19:04 25° NW 00:19:04 25° NW
CZ-2C R/B 4.4 00:22:35 10° N 00:25:21 29° NNW 00:25:21 29° NNW
ATLAS 5 CENTAUR R/B 4.1 00:37:43 10° NW 00:40:19 26° WNW 00:40:19 26° WNW
ADEOS Rocket 4.2 01:12:40 10° NNE 01:16:45 39° NNE 01:16:45 39° NNE
Cosmos 1980 Rocket 4.4 02:02:32 10° N 02:06:22 18° NE 02:07:04 18° ENE
Cosmos 1697 Rocket 4.4 02:03:06 10° N 02:06:40 28° NNE 02:06:40 28° NNE
Resurs 1-4 Rocket 4.5 02:13:16 10° NE 02:15:03 15° ENE 02:15:03 15° ENE
Cosmos 2082 Rocket 3.8 02:20:01 30° NE 02:20:01 30° NE 02:22:49 10° NNE
Cosmos 1833 Rocket 3.9 02:50:29 37° N 02:50:29 37° N 02:53:57 10° NNE
Cosmos 1092 Rocket 4.4 03:06:50 10° N 03:11:43 57° NNW 03:11:43 57° NNW
IRS-1D 4.5 03:10:11 10° NNE 03:14:13 45° ENE 03:14:13 45° ENE
ATLAS 3B R/B 3.4 03:19:38 44° SE 03:20:09 45° ESE 03:26:44 10° NE
CZ-2D R/B 2.6 03:22:58 10° NNE 03:27:17 59° NNE 03:27:17 59° NNE
Cosmos 1763 Rocket 4.0 03:35:41 57° ENE 03:35:41 57° ENE 03:40:22 10° NNE
Lacrosse 5 rocket 3.9 03:36:42 15° NNW 03:36:42 15° NNW 03:38:32 10° N
ADEOS II 4.1 03:33:49 10° NE 03:37:49 22° E 03:39:56 17° SE
SL-16 R/B 2.5 03:39:09 71° WNW 03:39:09 71° WNW 03:44:55 10° NNW
Cosmos 1375 Rocket 4.4 03:42:42 83° S 03:42:58 87° ESE 03:49:33 10° NNE
IRS-1C 4.4 03:37:57 10° N 03:42:25 59° NNW 03:42:25 59° NNW
SJ 16-02 4.4 03:42:51 10° NNE 03:45:04 13° ENE 03:47:16 10° E
Cosmos 1892 Rocket 4.3 03:50:52 49° NNE 03:50:52 49° NNE 03:54:08 10° N
Cosmos 1980 Rocket 3.0 03:45:16 10° NNW 03:48:47 38° NW 03:48:47 38° NW
Cosmos 724 4.3 03:51:40 66° NW 03:51:40 66° NW 03:57:18 10° NNE
SEDSat Delta rocket 4.4 03:57:25 44° SSE 03:57:25 44° SSE 04:02:38 10° ESE
Resurs 1-4 Rocket 2.6 03:51:47 10° N 03:56:08 47° NW 03:56:08 47° NW
Cosmos 1898 Rocket 3.9 03:54:34 10° NNW 03:58:31 51° NW 03:58:31 51° NW
Cosmos 2082 Rocket 4.0 04:01:51 18° NW 04:01:51 18° NW 04:05:39 10° N
Meteor 1-21 4.2 04:01:48 60° SSE 04:02:47 75° E 04:08:23 10° NNE
Cosmos 2180 Rocket 4.4 04:04:48 63° SW 04:05:49 76° W 04:12:14 10° N
Cosmos 1937 Rocket 3.3 04:01:33 10° NNW 04:06:45 87° WSW 04:06:55 84° SSW
SL-16 R/B 2.7 04:01:14 10° NNW 04:06:50 57° ENE 04:12:23 10° SE
Cosmos 2279 Rocket 4.1 04:10:10 54° W 04:10:38 55° W 04:16:47 10° N
Helios 1A Rocket 3.3 04:08:37 10° N 04:12:08 61° N 04:12:08 61° N
UNKNOWN OBJECT B 3.3 04:09:41 10° NNE 04:12:47 56° NNE 04:12:47 56° NNE
Cosmos 990 Rocket 3.8 04:13:17 10° NNW 04:18:25 68° WSW 04:18:27 68° WSW
Cosmos 2322 Rocket 2.4 04:15:12 10° NNW 04:20:50 71° ENE 04:26:26 10° SSE
ARIANE 5 R/B 2.9 04:18:55 10° N 04:23:53 45° WNW 04:24:06 45° WNW
CZ-2D R/B 3.4 04:22:12 10° N 04:26:13 70° WNW 04:26:13 70° WNW
BREEZE-M R/B 3.7 04:27:30 35° NNW 04:27:42 35° NNW 04:32:16 10° NE
Cosmos 1814 Rocket 4.4 04:27:51 43° WNW 04:28:08 44° WNW 04:33:05 10° N
USA 238 DEB 3.9 04:26:08 42° WSW 04:28:18 59° NW 04:35:10 10° NNE
USA 238 3.9 04:26:13 42° WSW 04:28:24 59° NW 04:35:17 10° NNE
Cosmos 292 Rocket 3.7 04:29:24 62° SW 04:30:04 74° WNW 04:34:53 10° NNE
Cosmos 1842 4.0 04:32:17 40° NW 04:32:17 40° NW 04:35:19 10° N
Okean O Rocket 4.3 04:38:58 10° ENE 04:41:26 15° E 04:43:54 10° SE
Delta 2 Rocket 4.4 04:40:25 40° SSW 04:42:02 53° SSE 04:47:31 10° E
Cosmos 2150 Rocket 4.2 04:39:45 10° NNW 04:45:04 54° WSW 04:47:55 26° SSW
Cosmos 1805 4.3 04:44:57 10° NNW 04:47:30 30° WNW 04:47:30 30° WNW
Cosmos 44 3.6 04:44:29 10° NW 04:49:35 49° WSW 04:54:45 10° S
PSLV R/B 4.4 04:47:09 10° NNE 04:51:12 47° E 04:54:43 13° S
PSLV R/B 2.9 04:51:37 78° NNE 04:51:37 78° NNE 04:54:31 10° ENE
Cosmos 841 Rocket 4.2 04:51:29 32° W 04:52:39 36° WNW 04:57:27 10° N
Cosmos 2298 Rocket 4.5 04:48:08 10° NW 04:53:02 39° WSW 04:54:16 34° SW
DNEPR-1 R/B 3.9 04:52:39 39° W 04:53:38 47° NW 04:58:02 10° NNE
H-II Stage 2 3.8 04:53:57 24° SSW 04:56:19 36° SSE 05:12:27 10° E
Cosmos 2266 Rocket 4.0 04:51:06 10° NNW 04:57:04 58° W 05:02:24 14° SSW
Cosmos 540 Rocket 3.6 04:58:18 32° SW 05:00:25 54° WNW 05:05:29 10° N
Cosmos 1953 2.2 04:58:26 10° NNW 05:02:29 68° W 05:05:26 18° S
Cosmos 1812 Rocket 3.5 05:00:41 10° N 05:05:10 83° W 05:09:35 10° S
NOSS 3-2 (C) 3.4 05:02:02 27° SW 05:05:26 72° NW 05:11:54 10° NNE
ATLAS CENTAUR R/B 2.6 05:01:33 10° NNW 05:05:53 49° ENE 05:10:28 10° SE
Cosmos 1602 Rocket 3.9 05:06:01 31° SW 05:07:30 44° W 05:11:39 10° N
CZ-2D R/B 4.1 05:05:46 10° NW 05:07:36 12° WNW 05:08:37 11° WNW
ATLAS 3B R/B 3.5 05:06:53 21° WSW 05:10:55 38° NW 05:17:18 10° NNE
Cosmos 1758 Rocket 4.2 05:09:57 10° S 05:14:10 56° E 05:18:26 10° NNE
Cosmos 1733 3.7 05:12:15 10° NNW 05:15:52 38° W 05:17:45 23° SW
ADEOS II 2.6 05:12:43 10° N 05:17:38 42° WNW 05:20:53 20° SW
NOSS 3-2 (A) 4.1 05:17:26 20° WSW 05:21:05 41° NW 05:27:13 10° NNE
SJ 16-02 1.5 05:19:41 10° NNW 05:23:58 51° WSW 05:28:14 10° S
Cosmos 44 Rocket 4.1 05:23:02 10° NW 05:27:35 32° WSW 05:32:09 10° S
CENTAUR R/B 2.6 05:23:24 11° SSW 05:29:01 75° ESE 05:35:40 10° NE
Aureole 2 Rocket 2.7 05:27:04 10° NNW 05:30:38 45° WSW 05:33:57 10° S
Cosmos 2360 Rocket 2.1 05:26:44 10° NNW 05:32:20 68° WSW 05:37:53 10° S
USA 215 3.3 05:26:36 10° NE 05:33:07 74° NW 05:39:02 13° SW
CRYOSAT 2 4.3 05:34:40 10° S 05:39:30 80° W 05:44:23 10° N
ERBS 3.6 05:37:30 15° W 05:39:35 28° NW 05:42:34 10° NNE
Cosmos 2219 3.7 05:36:04 10° S 05:41:40 62° ESE 05:47:20 10° NNE
Meteor 2-5 Rocket 3.7 05:36:24 10° SSW 05:41:55 75° W 05:47:32 10° N
Cosmos 192 4.4 05:40:33 10° SSW 05:45:27 85° ESE 05:50:23 10° NNE
Cosmos 2292 Rocket 2.6 05:46:59 10° N 05:50:20 83° W 05:53:16 10° S
SL-16 R/B 3.5 05:46:45 10° WNW 05:50:22 18° W 05:53:59 10° SW
Cosmos 1470 4.3 05:50:18 10° NW 05:53:07 19° W 05:55:54 10° SW
Cosmos 2333 Rocket 3.7 05:48:06 10° N 05:53:29 43° ENE 05:58:51 10° SE
Cosmos 773 Rocket 4.4 05:48:58 10° S 05:54:05 66° ESE 05:59:11 10° NNE
Cosmos 1125 Rocket 4.1 05:49:45 10° NW 05:54:33 35° W 05:59:17 10° SSW
Cosmos 2227 Rocket 4.0 05:52:01 10° SSE 05:56:56 32° ESE 06:01:53 10° NE
Cosmos 2219 Rocket 3.1 05:52:37 10° NNW 05:58:06 54° ENE 06:03:34 10° SE
Cosmos 2333 4.3 05:52:31 10° NNW 05:58:09 84° ENE 06:03:47 10° SSE
COSMOS 2428 2.9 05:53:01 10° NNW 05:58:44 81° ENE 06:04:24 10° SSE
Cosmos-2242 3.0 05:54:36 10° N 05:58:53 87° ENE 06:03:08 10° S
Cosmos 2297 Rocket 4.2 05:54:37 10° SSE 05:59:26 30° ESE 06:04:16 10° NE
BREEZE-M DEB 4.4 05:58:05 10° WSW 06:00:10 37° NNW 06:02:44 10° NE
Meteor 1-24 Rocket 3.6 05:56:44 10° SSW 06:02:01 78° W 06:07:24 10° N
Cosmos 2322 Rocket 3.8 06:01:33 10° WNW 06:04:09 13° W 06:06:44 10° SW
IDEFIX/ARIANE 42P 3.2 06:04:51 10° NNE 06:10:03 62° E 06:15:14 10° S
Cosmos 1553 Rocket 4.5 06:07:21 10° SSW 06:13:25 44° WNW 06:19:31 10° N
